Location: Poughquag
(41.6090°N, 73.6820°W)
Time: 13:22:15
(UTC-04:00)

DIWATA 2B (PO-101) - Pass Details

Date: 04 June 2024
Orbit: 574 x 588 km, 98.1° (Epoch: 14 June)

Event Time Altitude Azimuth Distance (km) Brightness Sun altitude
Rises 04:42:19 0° 177° (S) 2,778 ? -6.8°
Reaches altitude 10° 04:44:30 10° 182° (S) 1,882 ? -6.5°
Maximum altitude 04:48:29 52° 260° (W) 721 ? -5.9°
Drops below altitude 10° 04:52:29 10° 337° (NNW) 1,892 ? -5.3°
Sets 04:54:41 0° 342° (NNW) 2,794 ? -5.0°
